Location: Fresnedillas
(40.4869°N, 4.1715°W)
Time: 02:38:01
(UTC+00:00)

Daily predictions for brighter satellites

Satellite Brightness Start Highest point End
(mag) Time Altitude Azimuth Time Altitude Azimuth Time Altitude Azimuth
Milstar 3 Cent rocket 4.1 04:00:16 31° SSE 04:00:16 31° SSE 04:08:43 10° ESE
NOSS 3-2 (C) 4.3 04:00:07 63° NE 04:00:23 64° NE 04:08:54 10° SE
CENTAUR R/B 3.4 04:01:35 63° NNE 04:02:25 66° NE 04:11:15 10° SE
ATLAS 2AS CENTAUR R/B 3.3 04:15:30 45° S 04:17:59 65° ESE 04:25:48 10° NE
Atlas Centaur 2 3.8 04:26:40 29° S 04:26:47 29° S 04:31:50 10° ESE
NOSS 3-2 (A) 4.1 04:28:37 63° SSW 04:28:37 63° SSW 04:36:19 10° SSE
Lacrosse 5 3.0 04:32:03 40° NE 04:32:03 40° NE 04:35:17 10° NE
ATLAS CENTAUR R/B 4.2 04:32:06 10° NE 04:32:06 10° NE 04:32:19 10° NE
OAO 2 Rocket 4.4 04:37:06 38° SE 04:37:06 38° SE 04:40:53 10° ESE
ADEOS 4.3 04:31:20 10° NNE 04:36:25 50° E 04:41:27 10° S
Cosmos 2263 Rocket 3.5 04:43:11 28° N 04:43:11 28° N 04:45:52 10° NNE
SJ 16-02 3.4 04:45:52 20° NNE 04:45:52 20° NNE 04:47:19 10° NNE
USA 238 DEB 4.0 04:45:52 56° SW 04:45:52 56° SW 04:52:43 10° SSE
USA 238 3.9 04:45:55 56° SW 04:45:55 56° SW 04:52:49 10° SSE
FENGYUN 3A 3.5 04:55:56 10° NNE 05:01:22 84° WNW 05:06:45 10° SSW
COSMO-SKYMED 1 3.8 05:00:26 10° SE 05:04:29 40° ENE 05:07:59 13° N
Cosmos 1709 Rocket 3.9 04:58:27 10° SSW 05:04:46 68° W 05:11:09 10° N
Cosmos 2181 Rocket 4.1 04:59:43 10° N 05:05:56 75° E 05:12:02 10° SSE
Meteor 2-3 Rocket 3.6 05:06:22 10° SSW 05:12:05 81° W 05:17:54 10° N
Cosmos 1603 3.9 05:12:26 49° WSW 05:12:26 49° WSW 05:17:31 10° S
CZ-4C R/B 1.9 05:11:05 40° SSW 05:12:54 87° ESE 05:18:36 10° NE
Lacrosse 4 Rocket 1.3 05:14:32 81° W 05:14:39 83° WSW 05:19:03 10° SSE
Cosmos 1689 Rocket 3.9 05:15:01 10° SE 05:17:32 28° ENE 05:18:12 25° NE
Cosmos 1943 3.3 05:17:54 49° W 05:18:23 51° WSW 05:23:51 10° S
CZ-4B R/B 3.7 05:15:27 10° NNE 05:19:53 56° E 05:24:09 10° S
SAR-Lupe-4 4.1 05:17:47 10° SSE 05:21:17 58° ENE 05:22:38 33° N
ATLAS 3B R/B 3.2 05:17:51 18° NNW 05:23:07 59° NE 05:30:13 10° SE
Genesis I 3.1 05:24:55 52° SSW 05:25:47 85° ESE 05:29:38 10° NNE
Cosmos 1461 4.0 05:28:42 31° SW 05:28:42 31° SW 05:31:53 10° S
Cosmos 990 Rocket 3.9 05:27:48 10° SSW 05:33:01 75° WNW 05:38:18 10° NNE
deb Chang Zheng 4 3.5 05:29:24 10° N 05:33:41 61° WNW 05:37:57 10° SSW
ALOS 3.5 05:29:31 10° N 05:31:45 25° NNW 05:31:45 25° NNW
Cosmos 2074 Rocket 4.0 05:28:35 10° S 05:34:46 81° E 05:41:00 10° N
CZ-4B R/B 3.5 05:32:18 10° S 05:33:01 15° SSW 05:33:01 15° SSW
Cosmos 923 Rocket 4.0 05:34:01 25° NNW 05:37:03 65° WSW 05:42:18 10° S
SAR-Lupe-1 3.9 05:34:42 10° SSE 05:38:17 88° WSW 05:40:08 27° NNW
BREEZE M DEB (TANK) 3.6 05:27:36 10° SW 05:39:46 68° SSE 05:43:14 10° ENE
Cosmos 405 Rocket 3.6 05:37:19 10° S 05:40:52 47° E 05:44:28 10° NNE
METEOR-M 4.3 05:36:16 10° N 05:41:22 46° WNW 05:46:26 10° SW
EO 1 Delta rocket 4.4 05:40:29 10° SSE 05:45:36 62° ENE 05:50:11 10° N
Cosmos 1812 3.7 05:44:51 10° N 05:48:35 47° E 05:52:18 10° SSE
NOSS 3-4 (A) 4.2 05:48:19 26° WNW 05:49:52 29° NW 05:55:18 10° NNE
NOSS 3-4 (C) 4.2 05:48:24 26° WNW 05:49:59 29° NW 05:55:26 10° NNE
PSLV R/B 3.8 05:46:57 10° SSE 05:51:06 83° WSW 05:55:14 10° NNW
Cosmos 2228 Rocket 3.8 05:46:49 10° N 05:51:09 54° E 05:55:26 10° SSE
SL-4 R/B 3.9 05:50:37 15° NNW 05:51:20 15° N 05:53:40 10° NE
Cosmos 1515 Rocket 3.5 05:47:16 10° NNW 05:51:43 68° W 05:56:08 10° S
Cosmos 2184 Rocket 3.9 05:45:59 10° S 05:52:16 78° W 05:58:40 10° N
GPS 2-04 Rocket1 3.6 05:50:40 24° WSW 05:52:30 39° S 05:56:04 10° ESE
SKYMED 2 3.6 05:48:14 10° S 05:52:30 57° W 05:56:36 11° NNW
CENTAUR R/B 3.9 05:48:50 23° WNW 05:52:54 33° WSW 06:00:31 10° S
USA-17 4.4 05:49:32 13° SW 05:52:56 60° NW 05:56:07 10° NNE
Cosmos 158 Rocket 4.2 05:50:30 23° NW 05:53:07 44° WSW 05:57:51 10° S
Cosmos 1151 Rocket 3.8 05:53:57 29° W 05:54:19 29° W 05:58:01 10° SSW
ERS-2 3.2 05:51:18 10° SSW 05:53:52 25° WSW 05:53:52 25° WSW
Cosmos 1782 3.1 05:52:15 21° NNW 05:54:36 45° W 05:58:26 10° SSW
FALCON 9 DEB 4.4 05:56:58 22° NNW 05:56:58 22° NNW 05:59:23 10° NNE
Cosmos 1844 Rocket 2.6 05:52:58 10° SSW 05:58:35 67° WNW 06:04:15 10° NNE
SJ-12 4.4 05:56:55 10° N 06:00:39 36° WNW 06:04:23 10° SW
USA 234 3.7 05:54:34 10° NE 06:01:04 64° SE 06:07:31 10° SW
Cosmos 1680 Rocket 3.8 06:00:25 13° NNW 06:04:57 48° WSW 06:10:00 10° S
COSMOS 2455 3.1 06:00:41 10° SSW 06:06:40 72° ESE 06:12:42 10° NNE
RESURS DK-1 3.0 06:03:20 10° SW 06:07:08 34° WNW 06:10:58 10° N
BREEZE-M (TANK) 4.3 05:57:28 10° SW 06:08:26 51° SSE 06:11:41 10° ENE
ATLAS 2AS CENTAUR R/B 3.6 06:03:05 13° WSW 06:09:29 35° NW 06:16:35 10° NNE
BREEZE-M DEB 3.8 06:02:56 15° WNW 06:11:07 71° NNE 06:14:20 10° ESE
ATLAS CENTAUR R/B 1.2 06:08:18 14° NNW 06:11:29 87° ENE 06:15:29 10° SSE
Meteor PRIRODA 4.2 06:08:35 10° N 06:12:02 36° WNW 06:15:28 10° SW
Cosmos 1500 Rocket 3.6 06:07:53 10° SSW 06:12:05 52° W 06:16:19 10° N
Cosmos 1844 3.6 06:07:01 10° SW 06:12:30 64° WNW 06:18:03 10° NNE
Lacrosse 5 3.0 06:11:18 18° WNW 06:13:39 25° NNW 06:17:50 10° NNE
NOAA 6 4.3 06:08:49 10° NNE 06:13:57 71° ESE 06:19:02 10° S
Atlas Centaur 2 3.5 06:09:54 10° WSW 06:15:19 29° S 06:19:46 10° SE
Cosmos 372 Rocket 4.0 06:11:03 10° SSW 06:16:08 83° ESE 06:21:15 10° NNE
H-2A R/B 2.8 06:12:36 10° N 06:16:27 56° WNW 06:20:14 10° SSW
Cosmos 1437 Rocket 3.1 06:14:57 10° N 06:18:43 65° E 06:22:26 10° SSE
CZ-4B DEB 4.3 06:13:40 10° NNE 06:19:09 83° ESE 06:24:38 10° SSW
OAO 2 Rocket 4.2 06:16:04 12° WSW 06:20:29 41° S 06:25:18 10° ESE
Meteor 2-6 Rocket 4.2 06:16:22 10° NNW 06:21:40 58° W 06:27:00 10° S
SJ 16-02 3.3 06:22:56 11° NW 06:22:56 11° NW 06:23:43 10° NNW
Okean O Rocket 2.9 06:18:18 10° NNE 06:22:35 45° E 06:26:51 10° S
Cosmos 2263 Rocket 4.0 06:24:56 10° NW 06:25:22 11° NW 06:26:32 10° NNW
PAYLOAD B 4.4 06:20:04 10° NNE 06:25:36 77° ESE 06:31:05 10° S
SMAP 3.8 06:21:43 10° NNE 06:26:20 59° E 06:30:55 10° S
ATLAS 5 CENTAUR R/B 2.5 06:25:25 10° SSW 06:29:13 48° ESE 06:33:24 10° NE
Gbstr 26 Del rocket 2.8 06:26:06 14° WNW 06:29:18 66° SW 06:33:22 10° SE
Cosmos 1898 Rocket 4.4 06:28:09 10° WSW 06:32:37 27° WNW 06:37:07 10° N
Sich 1 3.1 06:28:20 10° S 06:32:45 86° W 06:37:13 10° N
CZ-2C R/B 3.4 06:29:05 10° SSE 06:34:27 57° ENE 06:39:43 10° N
Cosmos 1743 Rocket 4.4 06:32:19 10° SW 06:36:10 28° WNW 06:40:04 10° NNW
Nadezhda 3 Rocket 4.0 06:30:26 10° NNW 06:36:38 62° W 06:42:44 10° S
AQUARIUS 4.5 06:35:34 10° NNE 06:40:04 74° ESE 06:44:33 10° S
H-2A R/B 2.3 06:36:42 10° N 06:40:29 58° WNW 06:44:14 10° SSW
Envisat 3.0 06:35:43 10° N 06:40:43 59° WNW 06:45:41 10° SSW
COSMO-SKYMED 1 4.1 06:37:56 10° SW 06:40:49 17° W 06:43:41 10° NW
Cosmos 2082 Rocket 4.2 06:44:23 10° N 06:49:02 25° NE 06:53:40 10° ESE
Cosmos 1937 Rocket 4.4 06:45:22 10° WSW 06:49:36 25° WNW 06:53:52 10° N
CZ-4B R/B 3.2 06:45:04 10° NNE 06:50:28 90° ESE 06:55:55 10° SSW
